GW5732 Weather Reports


time (UTC)temp
C
wind
direction
speed
KPH
gust
KPH
rain 1hr
cm
rain 24hr
cm
rain mn
cm
humidity
%
barometer
mb
20260906122853 22 274 1.6 3.2 0.00 0.00 0.00 98 1011.8
20260906122353 21 312 4.8 6.4 0.00 0.00 0.00 99 1012.0
20260906121850 22 115 8.0 12.9 0.00 0.00 0.00 98 1011.8
20260906121345 22 120 3.2 4.8 0.00 0.00 0.00 99 1012.0
20260906120841 22 104 4.8 6.4 0.00 0.00 0.00 98 1011.6
20260906120337 22 68 4.8 4.8 0.00 0.00 0.00 98 1011.7
20260906115833 22 80 4.8 4.8 0.00 0.00 0.00 98 1011.4
20260906115328 22 327 0.0 0.0 0.00 0.00 0.00 98 1011.4
20260906114827 22 343 1.6 1.6 0.00 0.00 0.00 98 1011.4
20260906114323 22 342 0.0 1.6 0.00 0.00 0.00 98 1011.1
20260906113818 22 39 0.0 0.0 0.00 0.00 0.00 98 1011.5
20260906113317 22 327 0.0 0.0 0.00 0.00 0.00 98 1011.4
20260906112812 22 328 0.0 0.0 0.00 0.00 0.00 97 1011.2
20260906112308 22 12 0.0 0.0 0.00 0.00 0.00 97 1011.1
20260906111803 22 280 1.6 3.2 0.00 0.00 0.00 97 1011.1
20260906111301 22 312 0.0 0.0 0.00 0.00 0.00 97 1011.0
20260906110757 22 308 0.0 1.6 0.00 0.00 0.00 97 1010.6
20260906110253 22 308 0.0 0.0 0.00 0.00 0.00 96 1010.7
20260906105752 22 308 0.0 0.0 0.00 0.00 0.00 96 1010.4
20260906105248 22 250 0.0 1.6 0.00 0.00 0.00 96 1010.5
20260906104743 22 222 0.0 0.0 0.00 0.00 0.00 96 1010.7
20260906104241 22 279 3.2 3.2 0.00 0.00 0.00 96 1010.4
20260906103740 23 270 1.6 1.6 0.00 0.00 0.00 95 1010.5
20260906103234 23 269 1.6 3.2 0.00 0.00 0.00 95 1010.6
20260906102730 23 266 0.0 1.6 0.00 0.00 0.00 95 1010.4
20260906102229 23 266 0.0 0.0 0.00 0.00 0.00 95 1010.5
20260906101724 23 275 1.6 1.6 0.00 0.00 0.00 95 1010.3
20260906101219 23 275 0.0 0.0 0.00 0.00 0.00 95 1010.1
20260906100714 23 296 0.0 0.0 0.00 0.00 0.00 94 1010.4
20260906100214 23 282 3.2 3.2 0.00 0.00 0.00 94 1010.2
20260906095714 23 286 1.6 1.6 0.00 0.00 0.00 94 1010.0
20260906095210 23 278 3.2 4.8 0.00 0.00 0.00 94 1010.1
20260906094708 23 279 3.2 3.2 0.00 0.00 0.00 94 1010.0
20260906094204 23 279 0.0 1.6 0.00 0.00 0.00 94 1009.6
20260906093700 23 288 1.6 1.6 0.00 0.00 0.00 93 1009.7
20260906093156 23 297 0.0 1.6 0.00 0.00 0.00 93 1009.5
20260906092651 23 267 1.6 1.6 0.00 0.00 0.00 93 1009.5
20260906092150 23 282 1.6 4.8 0.00 0.00 0.00 93 1009.5
20260906091647 23 276 0.0 1.6 0.00 0.00 0.00 93 1009.5
20260906091143 24 308 0.0 0.0 0.00 0.00 0.00 92 1009.9
20260906090638 24 357 3.2 4.8 0.00 0.00 0.00 92 1009.6
20260906090132 24 240 0.0 0.0 0.00 0.00 0.00 92 1009.6
20260906085631 24 192 3.2 3.2 0.00 0.00 0.00 92 1009.8
20260906085126 24 104 3.2 4.8 0.00 0.00 0.00 91 1009.6
20260906084626 24 331 1.6 1.6 0.00 0.00 0.00 91 1009.8
20260906084125 25 269 1.6 3.2 0.00 0.00 0.00 91 1009.5
20260906083621 25 259 1.6 3.2 0.00 0.00 0.00 91 1009.7
20260906083121 25 244 0.0 1.6 0.00 0.00 0.00 91 1009.6
20260906082616 25 253 1.6 1.6 0.00 0.00 0.00 91 1009.4
20260906082112 25 274 3.2 3.2 0.00 0.00 0.00 92 1009.4
20260906081608 25 249 0.0 0.0 0.00 0.00 0.00 92 1009.6
20260906081102 25 262 3.2 3.2 0.00 0.00 0.00 92 1009.5
20260906080559 25 108 0.0 0.0 0.00 0.00 0.00 92 1009.2
20260906080055 25 109 0.0 0.0 0.00 0.00 0.00 92 1009.3
20260906075555 25 109 0.0 0.0 0.00 0.00 0.00 92 1009.4
20260906075049 25 109 0.0 0.0 0.00 0.00 0.00 92 1009.2
20260906074544 25 109 0.0 0.0 0.00 0.00 0.00 91 1009.2
20260906074043 25 109 0.0 0.0 0.00 0.00 0.00 91 1009.3
20260906073538 25 108 0.0 0.0 0.00 0.00 0.00 91 1009.4
20260906073034 25 247 0.0 0.0 0.00 0.00 0.00 91 1009.4
20260906072529 26 240 0.0 1.6 0.00 0.00 0.00 90 1009.7
20260906072025 26 78 0.0 0.0 0.00 0.00 0.00 90 1009.7
20260906071521 26 320 1.6 1.6 0.00 0.00 0.00 90 1009.7
20260906071016 26 81 0.0 1.6 0.00 0.00 0.00 91 1009.7
20260906070512 26 251 0.0 0.0 0.00 0.00 0.00 90 1009.8
20260906070008 26 320 1.6 1.6 0.00 0.00 0.00 90 1009.4
20260906065507 26 170 3.2 3.2 0.00 0.00 0.00 90 1009.7
20260906065003 26 170 0.0 0.0 0.00 0.00 0.00 90 1009.9
20260906064459 26 191 3.2 3.2 0.00 0.00 0.00 90 1009.7
20260906063953 26 308 1.6 1.6 0.00 0.00 0.00 89 1009.8
20260906063449 26 106 4.8 4.8 0.00 0.00 0.00 89 1009.9
20260906062949 26 109 3.2 3.2 0.00 0.00 0.00 89 1009.8
20260906062444 26 114 3.2 4.8 0.00 0.00 0.00 89 1010.0
20260906061939 27 76 4.8 4.8 0.00 0.00 0.00 89 1010.0
20260906061435 27 102 3.2 4.8 0.00 0.00 0.00 89 1010.1
20260906060929 27 42 4.8 4.8 0.00 0.00 0.00 88 1009.9
20260906060427 27 162 4.8 4.8 0.00 0.00 0.00 88 1010.1
20260906055923 27 11 4.8 4.8 0.00 0.00 0.00 88 1010.0
20260906055418 27 91 4.8 6.4 0.00 0.00 0.00 88 1010.1
20260906054913 27 101 3.2 9.7 0.00 0.00 0.00 87 1009.9
20260906054408 27 34 4.8 6.4 0.00 0.00 0.00 86 1010.2
20260906053904 27 81 4.8 4.8 0.00 0.00 0.00 86 1009.9
20260906053400 27 80 3.2 3.2 0.00 0.00 0.00 86 1009.9
20260906052856 27 78 8.0 9.7 0.00 0.00 0.00 85 1009.9
20260906052352 27 108 1.6 3.2 0.00 0.00 0.00 85 1009.8
20260906051849 27 73 4.8 9.7 0.00 0.00 0.00 84 1009.9
20260906051348 27 19 4.8 6.4 0.00 0.00 0.00 84 1009.9
20260906050844 27 285 1.6 1.6 0.00 0.00 0.00 84 1010.0
20260906050338 27 290 0.0 0.0 0.00 0.00 0.00 83 1009.6
20260906045838 27 235 0.0 0.0 0.00 0.00 0.00 83 1009.7
20260906045332 27 113 3.2 4.8 0.00 0.00 0.00 83 1009.8
20260906044829 27 9 0.0 0.0 0.00 0.00 0.00 84 1009.4
20260906044328 27 9 0.0 0.0 0.00 0.00 0.00 83 1009.7
20260906043826 27 9 1.6 3.2 0.00 0.00 0.00 82 1009.6
20260906043320 27 9 3.2 3.2 0.00 0.00 0.00 83 1009.6
20260906042820 27 321 0.0 0.0 0.00 0.00 0.00 84 1009.4
20260906042319 27 321 0.0 0.0 0.00 0.00 0.00 83 1009.5
20260906041815 27 321 0.0 0.0 0.00 0.00 0.00 83 1009.3
20260906041310 27 321 0.0 0.0 0.00 0.00 0.00 83 1009.3
20260906040805 27 321 0.0 0.0 0.00 0.00 0.00 83 1009.2
20260906040301 27 321 0.0 0.0 0.00 0.00 0.00 83 1009.1
20260906035755 27 321 0.0 0.0 0.00 0.00 0.00 83 1009.3
20260906035251 27 321 0.0 0.0 0.00 0.00 0.00 82 1009.3
20260906034751 27 321 0.0 0.0 0.00 0.00 0.00 83 1009.3
20260906034246 26 321 0.0 0.0 0.00 0.00 0.00 84 1009.2
20260906033742 26 321 0.0 0.0 0.00 0.00 0.00 84 1009.2
20260906033241 27 321 0.0 0.0 0.00 0.00 0.00 83 1009.1
20260906032738 27 321 0.0 0.0 0.00 0.00 0.00 82 1009.2
20260906032238 27 321 0.0 0.0 0.00 0.00 0.00 81 1009.0
20260906031733 27 321 1.6 1.6 0.00 0.00 0.00 80 1008.8
20260906031229 27 321 0.0 0.0 0.00 0.00 0.00 81 1008.9
20260906030729 27 321 0.0 0.0 0.00 0.00 0.00 81 1008.7
20260906030224 27 321 0.0 0.0 0.00 0.00 0.00 81 1009.0
20260906025723 27 321 0.0 0.0 0.00 0.00 0.00 80 1008.9
20260906025218 27 321 0.0 0.0 0.00 0.00 0.00 80 1009.0
20260906024717 27 321 0.0 0.0 0.00 0.00 0.00 80 1008.9
20260906024216 27 321 0.0 0.0 0.00 0.00 0.00 80 1008.8
20260906023712 28 321 0.0 0.0 0.00 0.00 0.00 79 1008.8
20260906023213 28 321 0.0 0.0 0.00 0.00 0.00 80 1008.9
20260906022708 28 321 0.0 0.0 0.00 0.00 0.00 79 1008.7
20260906022203 28 321 0.0 0.0 0.00 0.00 0.00 79 1008.5
20260906021659 28 321 0.0 0.0 0.00 0.00 0.00 79 1008.4
20260906021158 28 321 0.0 0.0 0.00 0.00 0.00 78 1008.4
20260906020653 28 321 0.0 0.0 0.00 0.00 0.00 78 1008.4
20260906020148 28 321 0.0 0.0 0.00 0.00 0.00 78 1008.2
20260906015648 28 321 0.0 0.0 0.00 0.00 0.00 78 1008.2
20260906015147 28 320 0.0 0.0 0.00 0.00 0.00 78 1008.2
20260906014646 28 321 0.0 0.0 0.00 0.00 0.00 78 1008.2
20260906014143 28 321 0.0 0.0 0.00 0.00 0.00 78 1008.0
20260906013638 29 321 1.6 1.6 0.00 0.00 0.00 77 1008.3
20260906013134 30 321 0.0 0.0 0.00 0.00 0.00 70 1008.1
20260906012633 30 321 0.0 0.0 0.00 0.00 0.00 69 1007.9
20260906012128 30 321 0.0 0.0 0.00 0.00 0.00 69 1007.5
20260906011624 31 321 0.0 0.0 0.00 0.00 0.00 68 1007.7
20260906011124 31 321 0.0 0.0 0.00 0.00 0.00 66 1007.5
20260906010620 31 321 0.0 0.0 0.00 0.00 0.00 65 1007.7
20260906010116 31 321 0.0 0.0 0.00 0.00 0.00 65 1007.6
20260906005615 31 321 0.0 0.0 0.00 0.00 0.00 65 1007.4
20260906005115 31 321 0.0 0.0 0.00 0.00 0.00 64 1007.3
20260906004614 31 321 0.0 0.0 0.00 0.00 0.00 63 1007.4
20260906004109 32 321 0.0 0.0 0.00 0.00 0.00 62 1007.4
20260906003604 32 321 0.0 0.0 0.00 0.00 0.00 61 1007.2
20260906003101 32 321 0.0 0.0 0.00 0.00 0.00 60 1007.2
20260906002600 32 322 0.0 0.0 0.00 0.00 0.00 60 1007.1
20260906002055 32 322 0.0 0.0 0.00 0.00 0.00 59 1007.2
20260906001550 33 322 0.0 0.0 0.00 0.00 0.00 58 1007.3
20260906001045 33 323 0.0 0.0 0.00 0.00 0.00 58 1007.5
20260906000541 33 321 0.0 0.0 0.00 0.00 0.00 58 1007.6
20260906000036 33 308 0.0 0.0 0.00 0.00 0.00 57 1007.7
20260905235536 33 308 0.0 0.0 0.00 0.00 0.00 56 1007.4
20260905235031 34 308 0.0 1.6 0.00 0.00 0.00 56 1007.5
20260905234526 34 309 0.0 0.0 0.00 0.00 0.00 55 1007.3
20260905234026 35 308 0.0 0.0 0.00 0.00 0.00 55 1007.4
20260905233521 35 308 3.2 4.8 0.00 0.00 0.00 54 1007.4
20260905233021 35 316 0.0 0.0 0.00 0.00 0.00 53 1007.5
20260905232516 35 291 0.0 0.0 0.00 0.00 0.00 52 1007.5
20260905232012 35 317 1.6 3.2 0.00 0.00 0.00 51 1007.5
20260905231507 35 319 0.0 0.0 0.00 0.00 0.00 51 1007.3
20260905231004 35 316 6.4 9.7 0.00 0.00 0.00 50 1007.4
20260905230502 36 321 6.4 6.4 0.00 0.00 0.00 49 1007.3
20260905230000 36 301 3.2 3.2 0.00 0.00 0.00 49 1007.3
20260905225456 36 304 4.8 4.8 0.00 0.00 0.00 48 1007.4
20260905224951 36 337 8.0 9.7 0.00 0.00 0.00 47 1007.3
20260905224446 36 329 8.0 9.7 0.00 0.00 0.00 47 1007.2
20260905223945 36 327 6.4 11.3 0.00 0.00 0.00 47 1007.2
20260905223443 36 319 6.4 9.7 0.00 0.00 0.00 46 1007.0
20260905222938 36 337 8.0 11.3 0.00 0.00 0.00 46 1007.1
20260905222438 37 276 3.2 4.8 0.00 0.00 0.00 46 1007.2
20260905221933 37 326 6.4 6.4 0.00 0.00 0.00 45 1006.9
20260905221430 37 305 8.0 9.7 0.00 0.00 0.00 44 1006.9
20260905220926 37 346 8.0 9.7 0.00 0.00 0.00 44 1006.9
20260905220422 37 323 8.0 11.3 0.00 0.00 0.00 43 1007.0
20260905215920 37 314 3.2 9.7 0.00 0.00 0.00 43 1007.1
20260905215416 37 326 11.3 12.9 0.00 0.00 0.00 44 1006.9
20260905214913 37 310 8.0 11.3 0.00 0.00 0.00 43 1007.2
20260905214408 38 354 8.0 9.7 0.00 0.00 0.00 42 1007.1
20260905213908 38 302 8.0 12.9 0.00 0.00 0.00 41 1007.0
20260905213404 38 291 9.7 14.5 0.00 0.00 0.00 41 1007.1
20260905212859 38 274 4.8 6.4 0.00 0.00 0.00 43 1007.0
20260905212354 38 282 8.0 9.7 0.00 0.00 0.00 43 1007.1
20260905211853 38 351 14.5 20.9 0.00 0.00 0.00 42 1007.2
20260905211349 38 280 9.7 11.3 0.00 0.00 0.00 42 1007.2
20260905210845 38 256 3.2 4.8 0.00 0.00 0.00 41 1007.3
20260905210345 38 249 3.2 3.2 0.00 0.00 0.00 41 1007.2
20260905205844 38 273 8.0 9.7 0.00 0.00 0.00 43 1007.4
20260905205339 38 260 1.6 3.2 0.00 0.00 0.00 42 1007.4
20260905204838 38 231 6.4 6.4 0.00 0.00 0.00 41 1007.5
20260905204335 38 297 9.7 11.3 0.00 0.00 0.00 41 1007.6
20260905203833 38 342 4.8 6.4 0.00 0.00 0.00 41 1007.5
20260905203329 39 350 4.8 6.4 0.00 0.00 0.00 40 1007.8
20260905202825 38 311 4.8 6.4 0.00 0.00 0.00 40 1007.9
20260905202319 38 290 4.8 4.8 0.00 0.00 0.00 42 1007.7
20260905201815 38 298 6.4 11.3 0.00 0.00 0.00 42 1007.8
20260905201310 37 252 3.2 3.2 0.00 0.00 0.00 42 1007.8
20260905200804 38 259 4.8 4.8 0.00 0.00 0.00 43 1007.8
20260905200301 38 295 8.0 9.7 0.00 0.00 0.00 43 1007.9
20260905195758 38 347 8.0 11.3 0.00 0.00 0.00 43 1008.0
20260905195253 38 237 6.4 9.7 0.00 0.00 0.00 40 1008.1
20260905194749 38 276 3.2 3.2 0.00 0.00 0.00 44 1007.9
20260905194249 38 349 6.4 9.7 0.00 0.00 0.00 42 1008.2
20260905193748 38 264 1.6 3.2 0.00 0.00 0.00 43 1008.2
20260905193243 38 284 8.0 9.7 0.00 0.00 0.00 43 1008.3
20260905192738 38 275 3.2 4.8 0.00 0.00 0.00 43 1008.5
20260905192235 38 267 4.8 6.4 0.00 0.00 0.00 44 1008.4
20260905191734 38 274 4.8 4.8 0.00 0.00 0.00 44 1008.4
20260905191232 37 264 9.7 12.9 0.00 0.00 0.00 47 1008.6
20260905190731 37 267 3.2 4.8 0.00 0.00 0.00 46 1008.6
20260905190230 37 264 1.6 1.6 0.00 0.00 0.00 48 1009.0
20260905185729 37 345 9.7 11.3 0.00 0.00 0.00 44 1009.0
20260905185224 38 281 6.4 11.3 0.00 0.00 0.00 47 1008.8
20260905184719 37 269 6.4 9.7 0.00 0.00 0.00 46 1008.8
20260905184218 37 351 4.8 6.4 0.00 0.00 0.00 47 1008.8
20260905183717 36 325 1.6 1.6 0.00 0.00 0.00 49 1009.2
20260905183213 37 295 8.0 11.3 0.00 0.00 0.00 48 1009.2
20260905182713 37 328 6.4 6.4 0.00 0.00 0.00 46 1009.2
20260905182212 37 317 1.6 1.6 0.00 0.00 0.00 49 1009.0
20260905181708 37 334 4.8 9.7 0.00 0.00 0.00 48 1009.2
20260905181206 37 257 3.2 3.2 0.00 0.00 0.00 49 1009.2
20260905180701 36 296 4.8 9.7 0.00 0.00 0.00 50 1009.6
20260905180157 36 249 6.4 9.7 0.00 0.00 0.00 50 1009.4
20260905175655 37 270 9.7 12.9 0.00 0.00 0.00 49 1009.6
20260905175151 36 260 4.8 4.8 0.00 0.00 0.00 52 1009.3
20260905174647 36 243 4.8 4.8 0.00 0.00 0.00 52 1009.5
20260905174142 36 249 9.7 11.3 0.00 0.00 0.00 50 1009.4
20260905173638 36 241 4.8 6.4 0.00 0.00 0.00 52 1009.5
20260905173134 36 286 6.4 11.3 0.00 0.00 0.00 52 1009.5
20260905172632 36 249 0.0 1.6 0.00 0.00 0.00 51 1009.6
20260905172127 36 292 8.0 9.7 0.00 0.00 0.00 51 1009.8
20260905171624 36 307 6.4 9.7 0.00 0.00 0.00 51 1009.7
20260905171119 36 274 1.6 3.2 0.00 0.00 0.00 53 1009.7
20260905170616 36 316 6.4 9.7 0.00 0.00 0.00 52 1009.8
20260905170112 35 259 4.8 6.4 0.00 0.00 0.00 54 1010.0
20260905165611 35 248 3.2 4.8 0.00 0.00 0.00 57 1010.1
20260905165107 35 253 6.4 6.4 0.00 0.00 0.00 58 1009.8
20260905164602 35 248 3.2 4.8 0.00 0.00 0.00 55 1010.0
20260905164101 35 252 1.6 3.2 0.00 0.00 0.00 56 1010.2
20260905163558 35 243 4.8 6.4 0.00 0.00 0.00 57 1010.4
20260905163054 34 298 4.8 6.4 0.00 0.00 0.00 56 1010.4
20260905162550 35 245 3.2 4.8 0.00 0.00 0.00 57 1010.2
20260905162049 35 336 9.7 11.3 0.00 0.00 0.00 56 1010.6
20260905161549 34 242 0.0 0.0 0.00 0.00 0.00 57 1010.6
20260905161047 35 234 6.4 6.4 0.00 0.00 0.00 58 1010.4
20260905160545 35 298 6.4 9.7 0.00 0.00 0.00 56 1010.3
20260905160045 34 287 3.2 4.8 0.00 0.00 0.00 57 1010.4
20260905155540 33 285 1.6 3.2 0.00 0.00 0.00 59 1010.6
20260905155038 33 274 8.0 9.7 0.00 0.00 0.00 58 1010.6
20260905154534 33 330 4.8 6.4 0.00 0.00 0.00 57 1010.6
20260905154029 33 273 3.2 4.8 0.00 0.00 0.00 60 1010.6
20260905153525 33 269 1.6 3.2 0.00 0.00 0.00 58 1010.7
20260905153025 33 306 6.4 6.4 0.00 0.00 0.00 60 1010.8
20260905152525 33 267 1.6 1.6 0.00 0.00 0.00 62 1010.8
20260905152020 33 222 3.2 4.8 0.00 0.00 0.00 63 1010.8
20260905151515 33 301 8.0 11.3 0.00 0.00 0.00 62 1010.6
20260905151011 32 264 4.8 6.4 0.00 0.00 0.00 64 1010.6
20260905150505 32 250 3.2 4.8 0.00 0.00 0.00 66 1010.5
20260905150003 32 289 9.7 12.9 0.00 0.00 0.00 64 1010.5
20260905145457 32 261 1.6 3.2 0.00 0.00 0.00 66 1010.6
20260905144956 32 271 4.8 4.8 0.00 0.00 0.00 65 1010.5
20260905144452 32 236 3.2 4.8 0.00 0.00 0.00 65 1010.5
20260905143950 31 278 4.8 4.8 0.00 0.00 0.00 66 1010.7
20260905143449 31 203 3.2 4.8 0.00 0.00 0.00 68 1010.8
20260905142944 31 238 3.2 3.2 0.00 0.00 0.00 69 1010.7
20260905142443 31 253 3.2 3.2 0.00 0.00 0.00 71 1010.8
20260905141939 30 246 6.4 6.4 0.00 0.00 0.00 72 1010.6
20260905141433 30 244 3.2 3.2 0.00 0.00 0.00 72 1010.5
20260905140930 30 216 3.2 4.8 0.00 0.00 0.00 73 1010.8
20260905140425 30 213 3.2 3.2 0.00 0.00 0.00 74 1010.8
20260905135924 29 213 1.6 1.6 0.00 0.00 0.00 78 1010.6
20260905135420 29 212 4.8 6.4 0.00 0.00 0.00 77 1011.0
20260905134915 28 213 4.8 4.8 0.00 0.00 0.00 78 1011.0
20260905134414 28 212 4.8 4.8 0.00 0.00 0.00 78 1010.7
20260905133908 28 212 6.4 6.4 0.00 0.00 0.00 81 1010.8
20260905133403 28 211 4.8 4.8 0.00 0.00 0.00 80 1010.7
20260905132903 28 211 4.8 4.8 0.00 0.00 0.00 81 1010.7
20260905132358 28 211 1.6 3.2 0.00 0.00 0.00 81 1010.7
20260905131858 28 210 3.2 4.8 0.00 0.00 0.00 81 1011.0
20260905131354 28 221 3.2 4.8 0.00 0.00 0.00 81 1010.7
20260905130848 28 222 4.8 6.4 0.00 0.00 0.00 80 1010.6
20260905130347 27 261 3.2 3.2 0.00 0.00 0.00 81 1010.7
20260905125843 27 261 1.6 3.2 0.00 0.00 0.00 82 1010.6
20260905125337 27 261 1.6 3.2 0.00 0.00 0.00 83 1010.7
20260905124834 27 261 3.2 3.2 0.00 0.00 0.00 83 1010.5
20260905124330 26 261 1.6 1.6 0.00 0.00 0.00 83 1010.7
20260905123830 26 261 0.0 0.0 0.00 0.00 0.00 84 1010.6
20260905123327 27 261 0.0 1.6 0.00 0.00 0.00 84 1010.6